User: anonymous   Login
Location: Newark
(46.7636°N, 1.8358°W)
Time: 03:29:37
(UTC+00:00)
Language:

Courier 1B - Orbit

View from above orbital plane
View from above orbital plane
View from above satellite
View from above satellite

Ground track
Ground track

The orbit data is extracted from the following two-line orbital elements,

1    58U 60013A   19292.32591039  .00000095  00000-0  10516-4 0  9999
2    58  28.3277 243.0032 0165030 224.6514 134.0633 13.46319396906490
Epoch (UTC): 19 October 2019 07:49:18
Eccentricity: 0.0165030
inclination: 28.3277°
perigee height: 962 km
apogee height: 1209 km
right ascension of ascending node: 243.0032°
argument of perigee: 224.6514°
revolutions per day: 13.46319396
mean anomaly at epoch: 134.0633°
orbit number at epoch: 90649

The dashed part of the orbit path shows where the satellite is in the earth's shadow,  

DLR